Time,TemperatureF,DewpointF,PressureIn,WindDirection,WindDirectionDegrees,WindSpeedMPH,WindSpeedGustMPH,Humidity,HourlyPrecipIn,Conditions,Clouds,dailyrainin,SoftwareType,DateUTC
2013-07-13 00:03:00,59.9,52.0,29.96,North,0,0.0,0.0,75,0.00,,SKC,0.00,VWS V13.00,2013-07-13 06:03:00,
2013-07-13 00:08:00,59.9,52.0,29.96,North,0,0.0,0.0,75,0.00,,SKC,0.00,VWS V13.00,2013-07-13 06:08:00,
2013-07-13 00:13:00,59.7,51.8,29.96,North,0,0.0,0.0,75,0.00,,SKC,0.00,VWS V13.00,2013-07-13 06:13:00,
2013-07-13 00:18:00,59.7,51.8,29.96,North,0,0.0,0.0,75,0.00,,SKC,0.00,VWS V13.00,2013-07-13 06:18:00,
2013-07-13 00:23:00,59.7,51.8,29.96,North,0,0.0,0.0,75,0.00,,SKC,0.00,VWS V13.00,2013-07-13 06:23:00,
2013-07-13 00:28:00,59.5,51.3,29.96,North,0,0.0,0.0,74,0.00,,SKC,0.00,VWS V13.00,2013-07-13 06:28:00,
2013-07-13 00:33:00,59.7,51.4,29.96,North,0,0.0,0.0,74,0.00,,SKC,0.00,VWS V13.00,2013-07-13 06:33:00,
2013-07-13 00:38:00,59.7,51.4,29.96,North,0,0.0,0.0,74,0.00,,SKC,0.00,VWS V13.00,2013-07-13 06:38:00,
2013-07-13 00:43:00,59.7,51.4,29.96,North,0,0.0,0.0,74,0.00,,SKC,0.00,VWS V13.00,2013-07-13 06:43:00,
2013-07-13 00:48:00,59.7,51.4,29.96,North,0,0.0,0.0,74,0.00,,SKC,0.00,VWS V13.00,2013-07-13 06:48:00,
2013-07-13 00:53:00,59.7,51.4,29.96,North,0,0.0,0.0,74,0.00,,SKC,0.00,VWS V13.00,2013-07-13 06:53:00,
2013-07-13 00:58:00,59.9,51.2,29.96,North,0,0.0,0.0,73,0.00,,SKC,0.00,VWS V13.00,2013-07-13 06:58:00,
2013-07-13 01:03:00,59.9,51.6,29.96,North,0,0.0,0.0,74,0.00,,SKC,0.00,VWS V13.00,2013-07-13 07:03:00,
2013-07-13 01:08:00,59.9,51.6,29.96,North,0,0.0,0.0,74,0.00,,SKC,0.00,VWS V13.00,2013-07-13 07:08:00,
2013-07-13 01:13:00,59.9,51.2,29.96,North,0,0.0,0.0,73,0.00,,SKC,0.00,VWS V13.00,2013-07-13 07:13:00,
2013-07-13 01:19:00,59.9,50.9,29.96,North,0,0.0,0.0,72,0.00,,SKC,0.00,VWS V13.00,2013-07-13 07:19:00,
2013-07-13 01:24:00,60.1,51.0,29.96,North,0,0.0,0.0,72,0.00,,SKC,0.00,VWS V13.00,2013-07-13 07:24:00,
2013-07-13 01:29:00,60.3,51.2,29.96,North,0,0.0,0.0,72,0.00,,SKC,0.00,VWS V13.00,2013-07-13 07:29:00,
2013-07-13 01:34:00,60.4,51.4,29.96,North,0,0.0,0.0,72,0.00,,SKC,0.00,VWS V13.00,2013-07-13 07:34:00,
2013-07-13 01:39:00,60.3,51.6,29.96,North,0,0.0,0.0,73,0.00,,SKC,0.00,VWS V13.00,2013-07-13 07:39:00,
2013-07-13 01:44:00,60.3,51.6,29.96,North,0,0.0,0.0,73,0.00,,SKC,0.00,VWS V13.00,2013-07-13 07:44:00,
2013-07-13 01:49:00,60.3,51.6,29.96,North,0,0.0,0.0,73,0.00,,SKC,0.00,VWS V13.00,2013-07-13 07:49:00,
2013-07-13 01:54:00,60.3,51.6,29.96,North,0,0.0,0.0,73,0.00,,SKC,0.00,VWS V13.00,2013-07-13 07:54:00,
2013-07-13 01:59:00,60.3,51.6,29.96,North,0,0.0,0.0,73,0.00,,SKC,0.00,VWS V13.00,2013-07-13 07:59:00,
2013-07-13 02:00:00,60.3,51.6,29.96,North,0,0.0,0.0,73,0.00,,SKC,0.00,VWS V13.00,2013-07-13 08:00:00,
2013-07-13 02:05:00,60.1,51.4,29.96,North,0,0.0,0.0,73,0.00,,SKC,0.00,VWS V13.00,2013-07-13 08:05:00,
2013-07-13 02:10:00,60.3,51.6,29.96,North,0,0.0,0.0,73,0.00,,SKC,0.00,VWS V13.00,2013-07-13 08:10:00,
2013-07-13 02:15:00,60.3,51.6,29.96,North,0,0.0,0.0,73,0.00,,SKC,0.00,VWS V13.00,2013-07-13 08:15:00,
2013-07-13 02:20:00,60.3,51.6,29.96,North,0,0.0,0.0,73,0.00,,SKC,0.00,VWS V13.00,2013-07-13 08:20:00,
2013-07-13 02:25:00,60.1,51.4,29.96,North,0,0.0,0.0,73,0.00,,SKC,0.00,VWS V13.00,2013-07-13 08:25:00,
2013-07-13 02:30:00,60.1,51.4,29.96,North,0,0.0,0.0,73,0.00,,SKC,0.00,VWS V13.00,2013-07-13 08:30:00,
2013-07-13 02:35:00,60.1,51.8,29.96,North,0,0.0,0.0,74,0.00,,SKC,0.00,VWS V13.00,2013-07-13 08:35:00,
2013-07-13 02:40:00,60.1,51.8,29.96,North,0,0.0,0.0,74,0.00,,SKC,0.00,VWS V13.00,2013-07-13 08:40:00,
2013-07-13 02:45:00,60.1,51.8,29.96,North,0,0.0,0.0,74,0.00,,SKC,0.00,VWS V13.00,2013-07-13 08:45:00,
2013-07-13 02:51:00,60.1,51.8,29.96,North,0,0.0,0.0,74,0.00,,SKC,0.00,VWS V13.00,2013-07-13 08:51:00,
2013-07-13 02:56:00,60.1,51.4,29.96,North,0,0.0,0.0,73,0.00,,SKC,0.00,VWS V13.00,2013-07-13 08:56:00,
2013-07-13 03:01:00,60.3,51.6,29.96,North,0,0.0,0.0,73,0.00,,SKC,0.00,VWS V13.00,2013-07-13 09:01:00,
2013-07-13 03:06:00,60.3,51.6,29.96,North,0,0.0,0.0,73,0.00,,SKC,0.00,VWS V13.00,2013-07-13 09:06:00,
2013-07-13 03:11:00,60.3,52.0,29.96,North,0,0.0,0.0,74,0.00,,SKC,0.00,VWS V13.00,2013-07-13 09:11:00,
2013-07-13 03:16:00,60.1,51.8,29.96,North,0,0.0,0.0,74,0.00,,SKC,0.00,VWS V13.00,2013-07-13 09:16:00,
2013-07-13 03:21:00,60.1,52.1,29.96,North,0,0.0,0.0,75,0.00,,SKC,0.00,VWS V13.00,2013-07-13 09:21:00,
2013-07-13 03:26:00,59.9,52.0,29.96,North,0,0.0,0.0,75,0.00,,SKC,0.00,VWS V13.00,2013-07-13 09:26:00,
2013-07-13 03:31:00,60.1,52.1,29.96,North,0,0.0,0.0,75,0.00,,SKC,0.00,VWS V13.00,2013-07-13 09:31:00,
2013-07-13 03:36:00,59.9,52.0,29.96,North,0,0.0,0.0,75,0.00,,SKC,0.00,VWS V13.00,2013-07-13 09:36:00,
2013-07-13 03:41:00,59.9,52.3,29.96,North,0,0.0,0.0,76,0.00,,SKC,0.00,VWS V13.00,2013-07-13 09:41:00,
2013-07-13 03:46:00,59.9,52.0,29.96,North,0,0.0,0.0,75,0.00,,SKC,0.00,VWS V13.00,2013-07-13 09:46:00,
2013-07-13 03:51:00,59.9,52.3,29.96,North,0,0.0,0.0,76,0.00,,SKC,0.00,VWS V13.00,2013-07-13 09:51:00,
2013-07-13 03:56:00,59.7,52.2,29.96,North,0,0.0,0.0,76,0.00,,SKC,0.00,VWS V13.00,2013-07-13 09:56:00,
2013-07-13 04:01:00,59.7,52.5,29.96,North,0,0.0,0.0,77,0.00,,SKC,0.00,VWS V13.00,2013-07-13 10:01:00,
2013-07-13 04:06:00,59.7,52.5,29.96,North,0,0.0,0.0,77,0.00,,SKC,0.00,VWS V13.00,2013-07-13 10:06:00,
2013-07-13 04:11:00,59.7,52.5,29.96,North,0,0.0,0.0,77,0.00,,SKC,0.00,VWS V13.00,2013-07-13 10:11:00,
2013-07-13 04:16:00,59.7,52.5,29.96,North,0,0.0,0.0,77,0.00,,SKC,0.00,VWS V13.00,2013-07-13 10:16:00,
2013-07-13 04:22:00,59.7,52.5,29.96,North,0,0.0,0.0,77,0.00,,SKC,0.00,VWS V13.00,2013-07-13 10:22:00,
2013-07-13 04:27:00,59.7,52.5,29.96,North,0,0.0,0.0,77,0.00,,SKC,0.00,VWS V13.00,2013-07-13 10:27:00,
2013-07-13 04:32:00,59.7,52.5,29.96,North,0,0.0,0.0,77,0.00,,SKC,0.00,VWS V13.00,2013-07-13 10:32:00,
2013-07-13 04:37:00,59.7,52.5,29.96,North,0,0.0,0.0,77,0.00,,SKC,0.00,VWS V13.00,2013-07-13 10:37:00,
2013-07-13 04:42:00,59.5,52.3,29.96,North,0,0.0,0.0,77,0.00,,SKC,0.00,VWS V13.00,2013-07-13 10:42:00,
2013-07-13 04:47:00,59.7,52.9,29.96,North,0,0.0,0.0,78,0.00,,SKC,0.00,VWS V13.00,2013-07-13 10:47:00,
2013-07-13 04:52:00,59.7,52.9,29.96,North,0,0.0,0.0,78,0.00,,SKC,0.00,VWS V13.00,2013-07-13 10:52:00,
2013-07-13 04:57:00,59.5,52.7,29.96,North,0,0.0,0.0,78,0.00,,SKC,0.00,VWS V13.00,2013-07-13 10:57:00,
2013-07-13 05:02:00,59.5,53.0,29.96,North,0,0.0,0.0,79,0.00,,SKC,0.00,VWS V13.00,2013-07-13 11:02:00,
2013-07-13 05:07:00,59.4,52.9,29.96,North,0,0.0,0.0,79,0.00,,SKC,0.00,VWS V13.00,2013-07-13 11:07:00,
2013-07-13 05:12:00,59.5,53.0,29.96,North,0,0.0,0.0,79,0.00,,SKC,0.00,VWS V13.00,2013-07-13 11:12:00,
2013-07-13 05:17:00,59.5,53.4,29.96,North,0,0.0,0.0,80,0.00,,SKC,0.00,VWS V13.00,2013-07-13 11:17:00,
2013-07-13 05:22:00,59.4,53.2,29.96,North,0,0.0,0.0,80,0.00,,SKC,0.00,VWS V13.00,2013-07-13 11:22:00,
2013-07-13 05:27:00,59.4,53.5,29.96,North,0,0.0,0.0,81,0.00,,SKC,0.00,VWS V13.00,2013-07-13 11:27:00,
2013-07-13 05:32:00,59.4,53.5,29.96,North,0,0.0,0.0,81,0.00,,SKC,0.00,VWS V13.00,2013-07-13 11:32:00,
2013-07-13 05:37:00,59.4,53.5,29.96,North,0,0.0,0.0,81,0.00,,SKC,0.00,VWS V13.00,2013-07-13 11:37:00,
2013-07-13 05:42:00,59.4,53.2,29.96,North,0,0.0,0.0,80,0.00,,SKC,0.00,VWS V13.00,2013-07-13 11:42:00,
2013-07-13 05:47:00,59.4,53.5,29.96,North,0,0.0,0.0,81,0.00,,SKC,0.00,VWS V13.00,2013-07-13 11:47:00,
2013-07-13 05:52:00,59.4,53.2,29.96,North,0,0.0,0.0,80,0.00,,SKC,0.00,VWS V13.00,2013-07-13 11:52:00,
2013-07-13 05:57:00,59.4,53.2,29.96,North,0,0.0,0.0,80,0.00,,SKC,0.00,VWS V13.00,2013-07-13 11:57:00,
2013-07-13 06:02:00,59.4,53.2,29.96,North,0,0.0,0.0,80,0.00,,SKC,0.00,VWS V13.00,2013-07-13 12:02:00,
2013-07-13 06:07:00,59.4,53.2,29.96,North,0,0.0,0.0,80,0.00,,SKC,0.00,VWS V13.00,2013-07-13 12:07:00,
2013-07-13 06:12:00,59.5,53.4,29.96,North,0,0.0,0.0,80,0.00,,SKC,0.00,VWS V13.00,2013-07-13 12:12:00,
2013-07-13 06:17:00,59.5,53.7,29.96,North,0,0.0,0.0,81,0.00,,SKC,0.00,VWS V13.00,2013-07-13 12:17:00,
2013-07-13 06:22:00,59.5,53.7,29.96,North,0,0.0,0.0,81,0.00,,SKC,0.00,VWS V13.00,2013-07-13 12:22:00,
2013-07-13 06:27:00,59.5,53.7,29.96,North,0,0.0,0.0,81,0.00,,SKC,0.00,VWS V13.00,2013-07-13 12:27:00,
2013-07-13 06:32:00,59.5,53.7,29.96,North,0,0.0,0.0,81,0.00,,SKC,0.00,VWS V13.00,2013-07-13 12:32:00,
2013-07-13 06:37:00,59.5,53.7,29.96,North,0,0.0,0.0,81,0.00,,SKC,0.00,VWS V13.00,2013-07-13 12:37:00,
2013-07-13 06:42:00,59.5,53.7,29.99,North,0,0.0,0.0,81,0.00,,SKC,0.00,VWS V13.00,2013-07-13 12:42:00,
2013-07-13 06:48:00,59.5,53.7,29.99,North,0,0.0,0.0,81,0.00,,SKC,0.00,VWS V13.00,2013-07-13 12:48:00,
2013-07-13 06:53:00,59.5,54.0,29.99,North,0,0.0,0.0,82,0.00,,SKC,0.00,VWS V13.00,2013-07-13 12:53:00,
2013-07-13 06:58:00,59.7,54.2,29.99,North,0,0.0,0.0,82,0.00,,SKC,0.00,VWS V13.00,2013-07-13 12:58:00,
2013-07-13 07:03:00,59.5,54.0,29.99,North,0,0.0,0.0,82,0.00,,SKC,0.00,VWS V13.00,2013-07-13 13:03:00,
2013-07-13 07:08:00,59.7,54.2,29.99,North,0,0.0,0.0,82,0.00,,SKC,0.00,VWS V13.00,2013-07-13 13:08:00,
2013-07-13 07:13:00,59.7,54.2,29.99,North,0,0.0,0.0,82,0.00,,SKC,0.00,VWS V13.00,2013-07-13 13:13:00,
2013-07-13 07:18:00,59.7,54.2,29.99,North,0,0.0,0.0,82,0.00,,SKC,0.00,VWS V13.00,2013-07-13 13:18:00,
2013-07-13 07:23:00,59.9,54.4,29.99,North,0,0.0,0.0,82,0.00,,SKC,0.00,VWS V13.00,2013-07-13 13:23:00,
2013-07-13 07:28:00,59.9,54.4,29.99,North,0,0.0,0.0,82,0.00,,SKC,0.00,VWS V13.00,2013-07-13 13:28:00,
2013-07-13 07:33:00,60.1,54.6,29.99,North,0,0.0,0.0,82,0.00,,SKC,0.00,VWS V13.00,2013-07-13 13:33:00,
2013-07-13 07:38:00,60.1,54.6,29.99,North,0,0.0,0.0,82,0.00,,SKC,0.00,VWS V13.00,2013-07-13 13:38:00,
2013-07-13 07:43:00,60.3,54.8,29.99,North,0,0.0,0.0,82,0.00,,SKC,0.00,VWS V13.00,2013-07-13 13:43:00,
2013-07-13 07:48:00,60.3,54.8,29.99,North,0,0.0,0.0,82,0.00,,SKC,0.00,VWS V13.00,2013-07-13 13:48:00,
2013-07-13 07:53:00,60.4,54.9,29.99,North,0,0.0,0.0,82,0.00,,SKC,0.00,VWS V13.00,2013-07-13 13:53:00,
2013-07-13 07:58:00,60.4,54.9,29.99,North,0,0.0,0.0,82,0.00,,SKC,0.00,VWS V13.00,2013-07-13 13:58:00,
2013-07-13 08:03:00,60.6,55.1,29.99,North,0,0.0,0.0,82,0.00,,SKC,0.00,VWS V13.00,2013-07-13 14:03:00,
2013-07-13 08:08:00,60.6,55.1,29.99,North,0,0.0,0.0,82,0.00,,SKC,0.00,VWS V13.00,2013-07-13 14:08:00,
2013-07-13 08:13:00,60.6,55.1,29.99,North,0,0.0,0.0,82,0.00,,SKC,0.00,VWS V13.00,2013-07-13 14:13:00,
2013-07-13 08:18:00,60.8,55.3,29.99,North,0,0.0,0.0,82,0.00,,SKC,0.00,VWS V13.00,2013-07-13 14:18:00,
2013-07-13 08:23:00,60.8,55.3,29.99,North,0,0.0,0.0,82,0.00,,SKC,0.00,VWS V13.00,2013-07-13 14:23:00,
2013-07-13 08:28:00,60.8,54.9,29.99,North,0,0.0,0.0,81,0.00,,SKC,0.00,VWS V13.00,2013-07-13 14:28:00,
2013-07-13 08:33:00,60.8,54.9,29.99,North,0,0.0,0.0,81,0.00,,SKC,0.00,VWS V13.00,2013-07-13 14:33:00,
2013-07-13 08:39:00,61.0,55.1,29.99,North,0,0.0,0.0,81,0.00,,SKC,0.00,VWS V13.00,2013-07-13 14:39:00,
2013-07-13 08:44:00,61.0,55.1,29.99,North,0,0.0,0.0,81,0.00,,SKC,0.00,VWS V13.00,2013-07-13 14:44:00,
2013-07-13 08:49:00,61.2,55.3,29.99,North,0,0.0,0.0,81,0.00,,SKC,0.00,VWS V13.00,2013-07-13 14:49:00,
2013-07-13 08:54:00,61.3,55.8,29.99,North,0,0.0,0.0,82,0.00,,SKC,0.00,VWS V13.00,2013-07-13 14:54:00,
2013-07-13 08:59:00,61.7,56.2,29.99,North,0,0.0,0.0,82,0.00,,SKC,0.00,VWS V13.00,2013-07-13 14:59:00,
2013-07-13 09:04:00,62.1,56.5,29.99,North,0,0.0,0.0,82,0.00,,SKC,0.00,VWS V13.00,2013-07-13 15:04:00,
2013-07-13 09:09:00,62.6,56.7,29.99,North,0,0.0,0.0,81,0.00,,SKC,0.00,VWS V13.00,2013-07-13 15:09:00,
2013-07-13 09:14:00,63.0,57.0,29.99,North,0,0.0,0.0,81,0.00,,SKC,0.00,VWS V13.00,2013-07-13 15:14:00,
2013-07-13 09:19:00,63.5,57.2,29.99,North,0,0.0,0.0,80,0.00,,SKC,0.00,VWS V13.00,2013-07-13 15:19:00,
2013-07-13 09:24:00,63.5,56.9,29.99,North,0,0.0,0.0,79,0.00,,SKC,0.00,VWS V13.00,2013-07-13 15:24:00,
2013-07-13 09:29:00,63.9,57.2,30.02,North,0,0.0,0.0,79,0.00,,SKC,0.00,VWS V13.00,2013-07-13 15:29:00,
2013-07-13 09:34:00,63.9,56.5,30.02,North,0,0.0,0.0,77,0.00,,SKC,0.00,VWS V13.00,2013-07-13 15:34:00,
2013-07-13 09:39:00,64.0,56.3,30.02,North,0,0.0,0.0,76,0.00,,SKC,0.00,VWS V13.00,2013-07-13 15:39:00,
2013-07-13 09:44:00,64.4,55.9,30.02,North,0,0.0,0.0,74,0.00,,SKC,0.00,VWS V13.00,2013-07-13 15:44:00,
2013-07-13 09:49:00,64.4,55.2,30.02,North,0,0.0,0.0,72,0.00,,SKC,0.00,VWS V13.00,2013-07-13 15:49:00,
2013-07-13 09:54:00,64.8,55.2,30.02,North,0,0.0,0.0,71,0.00,,SKC,0.00,VWS V13.00,2013-07-13 15:54:00,
2013-07-13 09:59:00,65.1,55.1,30.02,North,0,0.0,0.0,70,0.00,,SKC,0.00,VWS V13.00,2013-07-13 15:59:00,
2013-07-13 10:04:00,65.5,55.5,30.02,North,0,0.0,0.0,70,0.00,,SKC,0.00,VWS V13.00,2013-07-13 16:04:00,
2013-07-13 10:09:00,65.7,55.2,30.02,North,0,0.0,0.0,69,0.00,,SKC,0.00,VWS V13.00,2013-07-13 16:09:00,
2013-07-13 10:14:00,65.8,55.4,29.99,North,0,0.0,0.0,69,0.00,,SKC,0.00,VWS V13.00,2013-07-13 16:14:00,
2013-07-13 10:19:00,65.8,55.0,29.99,North,0,0.0,0.0,68,0.00,,SKC,0.00,VWS V13.00,2013-07-13 16:19:00,
2013-07-13 10:24:00,66.0,55.2,29.99,North,0,0.0,0.0,68,0.00,,SKC,0.00,VWS V13.00,2013-07-13 16:24:00,
2013-07-13 10:30:00,66.4,55.1,30.02,North,0,0.0,0.0,67,0.00,,SKC,0.00,VWS V13.00,2013-07-13 16:30:00,
2013-07-13 10:35:00,66.9,55.2,30.02,North,0,0.0,0.0,66,0.00,,SKC,0.00,VWS V13.00,2013-07-13 16:35:00,
2013-07-13 10:40:00,67.8,55.2,30.02,North,0,0.0,0.0,64,0.00,,SKC,0.00,VWS V13.00,2013-07-13 16:40:00,
2013-07-13 10:45:00,68.9,55.8,30.02,North,0,0.0,0.0,63,0.00,,SKC,0.00,VWS V13.00,2013-07-13 16:45:00,
2013-07-13 10:50:00,69.3,50.9,30.02,North,0,0.0,0.0,52,0.00,,SKC,0.00,VWS V13.00,2013-07-13 16:50:00,
2013-07-13 10:55:00,69.3,51.4,30.02,North,0,0.0,0.0,53,0.00,,SKC,0.00,VWS V13.00,2013-07-13 16:55:00,
2013-07-13 11:00:00,68.9,50.0,30.02,North,0,0.0,0.0,51,0.00,,SKC,0.00,VWS V13.00,2013-07-13 17:00:00,
2013-07-13 11:05:00,68.9,50.0,30.02,North,0,0.0,0.0,51,0.00,,SKC,0.00,VWS V13.00,2013-07-13 17:05:00,
2013-07-13 11:10:00,69.3,51.4,30.02,North,0,0.0,0.0,53,0.00,,SKC,0.00,VWS V13.00,2013-07-13 17:10:00,
2013-07-13 11:15:00,70.3,52.9,30.02,North,0,0.0,0.0,54,0.00,,SKC,0.00,VWS V13.00,2013-07-13 17:15:00,
2013-07-13 11:20:00,70.3,50.3,30.02,North,0,0.0,0.0,49,0.00,,SKC,0.00,VWS V13.00,2013-07-13 17:20:00,
2013-07-13 11:25:00,69.6,50.2,30.02,North,0,0.0,0.0,50,0.00,,SKC,0.00,VWS V13.00,2013-07-13 17:25:00,
2013-07-13 11:30:00,68.9,49.5,30.02,North,0,0.0,0.0,50,0.00,,SKC,0.00,VWS V13.00,2013-07-13 17:30:00,
2013-07-13 11:35:00,68.7,50.4,30.02,North,0,0.0,0.0,52,0.00,,SKC,0.00,VWS V13.00,2013-07-13 17:35:00,
2013-07-13 11:40:00,69.3,52.4,30.02,North,0,0.0,0.0,55,0.00,,SKC,0.00,VWS V13.00,2013-07-13 17:40:00,
2013-07-13 11:45:00,70.0,50.5,30.02,North,0,0.0,0.0,50,0.00,,SKC,0.00,VWS V13.00,2013-07-13 17:45:00,
2013-07-13 11:50:00,70.7,51.2,30.02,North,0,0.0,0.0,50,0.00,,SKC,0.00,VWS V13.00,2013-07-13 17:50:00,
2013-07-13 11:55:00,71.2,51.7,30.02,North,0,0.0,0.0,50,0.00,,SKC,0.00,VWS V13.00,2013-07-13 17:55:00,
2013-07-13 12:00:00,71.8,48.7,30.02,North,0,0.0,0.0,44,0.00,,SKC,0.00,VWS V13.00,2013-07-13 18:00:00,
2013-07-13 12:05:00,72.0,48.3,30.02,North,0,0.0,0.0,43,0.00,,SKC,0.00,VWS V13.00,2013-07-13 18:05:00,
2013-07-13 12:10:00,72.3,48.0,30.02,North,0,0.0,0.0,42,0.00,,SKC,0.00,VWS V13.00,2013-07-13 18:10:00,
2013-07-13 12:15:00,72.5,48.8,30.02,North,0,0.0,0.0,43,0.00,,SKC,0.00,VWS V13.00,2013-07-13 18:15:00,
2013-07-13 12:20:00,73.0,49.9,30.02,North,0,0.0,0.0,44,0.00,,SKC,0.00,VWS V13.00,2013-07-13 18:20:00,
2013-07-13 12:26:00,73.4,47.0,30.02,North,0,0.0,0.0,39,0.00,,SKC,0.00,VWS V13.00,2013-07-13 18:26:00,
2013-07-13 12:31:00,73.6,48.5,30.02,North,0,0.0,0.0,41,0.00,,SKC,0.00,VWS V13.00,2013-07-13 18:31:00,
2013-07-13 12:36:00,74.3,47.1,30.02,North,0,0.0,0.0,38,0.00,,SKC,0.00,VWS V13.00,2013-07-13 18:36:00,
2013-07-13 12:41:00,74.8,46.8,30.02,North,0,0.0,0.0,37,0.00,,SKC,0.00,VWS V13.00,2013-07-13 18:41:00,
2013-07-13 12:46:00,75.0,46.3,30.02,North,0,0.0,0.0,36,0.00,,SKC,0.00,VWS V13.00,2013-07-13 18:46:00,
2013-07-13 12:51:00,75.0,46.3,30.02,North,0,0.0,0.0,36,0.00,,SKC,0.00,VWS V13.00,2013-07-13 18:51:00,
2013-07-13 12:56:00,74.8,46.8,30.02,North,0,0.0,0.0,37,0.00,,SKC,0.00,VWS V13.00,2013-07-13 18:56:00,
2013-07-13 13:01:00,75.2,47.2,29.99,North,0,0.0,0.0,37,0.00,,SKC,0.00,VWS V13.00,2013-07-13 19:01:00,
2013-07-13 13:06:00,75.9,46.3,29.99,North,0,0.0,0.0,35,0.00,,SKC,0.00,VWS V13.00,2013-07-13 19:06:00,
2013-07-13 13:11:00,76.5,46.8,29.99,North,0,0.0,0.0,35,0.00,,SKC,0.00,VWS V13.00,2013-07-13 19:11:00,
2013-07-13 13:16:00,77.2,48.2,30.02,North,0,0.0,0.0,36,0.00,,SKC,0.00,VWS V13.00,2013-07-13 19:16:00,
2013-07-13 13:21:00,78.3,48.4,30.02,North,0,0.0,0.0,35,0.00,,SKC,0.00,VWS V13.00,2013-07-13 19:21:00,
2013-07-13 13:26:00,78.8,47.3,30.02,North,0,0.0,0.0,33,0.00,,SKC,0.00,VWS V13.00,2013-07-13 19:26:00,
2013-07-13 13:31:00,79.0,46.6,30.02,North,0,0.0,0.0,32,0.00,,SKC,0.00,VWS V13.00,2013-07-13 19:31:00,
2013-07-13 13:36:00,79.5,47.9,30.02,North,0,0.0,0.0,33,0.00,,SKC,0.00,VWS V13.00,2013-07-13 19:36:00,
2013-07-13 13:41:00,79.9,46.6,30.02,North,0,0.0,0.0,31,0.00,,SKC,0.00,VWS V13.00,2013-07-13 19:41:00,
2013-07-13 13:46:00,79.7,46.4,30.02,North,0,0.0,0.0,31,0.00,,SKC,0.00,VWS V13.00,2013-07-13 19:46:00,
2013-07-13 13:51:00,79.3,47.0,30.02,North,0,0.0,0.0,32,0.00,,SKC,0.00,VWS V13.00,2013-07-13 19:51:00,
2013-07-13 13:56:00,79.3,47.8,30.02,North,0,0.0,0.0,33,0.00,,SKC,0.00,VWS V13.00,2013-07-13 19:56:00,
2013-07-13 14:01:00,79.0,47.5,30.02,North,0,0.0,0.0,33,0.00,,SKC,0.00,VWS V13.00,2013-07-13 20:01:00,
2013-07-13 14:06:00,78.4,47.0,30.02,North,0,0.0,0.0,33,0.00,,SKC,0.00,VWS V13.00,2013-07-13 20:06:00,
2013-07-13 14:11:00,77.5,45.4,30.02,North,0,0.0,0.0,32,0.00,,SKC,0.00,VWS V13.00,2013-07-13 20:11:00,
2013-07-13 14:17:00,77.0,46.5,30.02,North,0,0.0,0.0,34,0.00,,SKC,0.00,VWS V13.00,2013-07-13 20:17:00,
2013-07-13 14:22:00,76.5,45.2,30.02,North,0,0.0,0.0,33,0.00,,SKC,0.00,VWS V13.00,2013-07-13 20:22:00,
2013-07-13 14:27:00,76.3,46.7,30.02,North,0,0.0,0.0,35,0.00,,SKC,0.00,VWS V13.00,2013-07-13 20:27:00,
2013-07-13 14:32:00,76.5,50.4,30.02,North,0,0.0,0.0,40,0.00,,SKC,0.00,VWS V13.00,2013-07-13 20:32:00,
2013-07-13 14:37:00,76.1,46.5,30.02,North,0,0.0,0.0,35,0.00,,SKC,0.00,VWS V13.00,2013-07-13 20:37:00,
2013-07-13 14:42:00,75.7,51.0,30.02,North,0,0.0,0.0,42,0.00,,SKC,0.00,VWS V13.00,2013-07-13 20:42:00,
2013-07-13 14:47:00,75.7,49.0,30.02,North,0,0.0,0.0,39,0.00,,SKC,0.00,VWS V13.00,2013-07-13 20:47:00,
2013-07-13 14:52:00,75.9,47.8,30.02,North,0,0.0,0.0,37,0.00,,SKC,0.00,VWS V13.00,2013-07-13 20:52:00,
2013-07-13 14:57:00,76.5,48.3,30.02,North,0,0.0,0.0,37,0.00,,SKC,0.00,VWS V13.00,2013-07-13 20:57:00,
2013-07-13 15:02:00,77.0,48.0,30.02,North,0,0.0,0.0,36,0.00,,SKC,0.00,VWS V13.00,2013-07-13 21:02:00,
2013-07-13 15:07:00,77.5,47.0,30.02,North,0,0.0,0.0,34,0.00,,SKC,0.00,VWS V13.00,2013-07-13 21:07:00,
2013-07-13 15:12:00,77.9,47.3,30.02,North,0,0.0,0.0,34,0.00,,SKC,0.00,VWS V13.00,2013-07-13 21:12:00,
2013-07-13 15:17:00,78.1,46.7,30.02,North,0,0.0,0.0,33,0.00,,SKC,0.00,VWS V13.00,2013-07-13 21:17:00,
2013-07-13 15:22:00,78.4,46.2,30.02,North,0,0.0,0.0,32,0.00,,SKC,0.00,VWS V13.00,2013-07-13 21:22:00,
2013-07-13 15:27:00,78.6,46.3,29.99,North,0,0.0,0.0,32,0.00,,SKC,0.00,VWS V13.00,2013-07-13 21:27:00,
2013-07-13 15:32:00,78.6,45.5,29.99,North,0,0.0,0.0,31,0.00,,SKC,0.00,VWS V13.00,2013-07-13 21:32:00,
2013-07-13 15:37:00,78.6,46.3,29.99,North,0,0.0,0.0,32,0.00,,SKC,0.00,VWS V13.00,2013-07-13 21:37:00,
2013-07-13 15:42:00,78.8,46.5,29.99,North,0,0.0,0.0,32,0.00,,SKC,0.00,VWS V13.00,2013-07-13 21:42:00,
2013-07-13 15:47:00,79.0,46.6,29.99,North,0,0.0,0.0,32,0.00,,SKC,0.00,VWS V13.00,2013-07-13 21:47:00,
2013-07-13 15:53:00,78.8,46.5,29.99,North,0,0.0,0.0,32,0.00,,SKC,0.00,VWS V13.00,2013-07-13 21:53:00,
2013-07-13 15:58:00,78.6,46.3,29.99,North,0,0.0,0.0,32,0.00,,SKC,0.00,VWS V13.00,2013-07-13 21:58:00,
2013-07-13 16:03:00,78.3,46.8,29.99,North,0,0.0,0.0,33,0.00,,SKC,0.00,VWS V13.00,2013-07-13 22:03:00,
2013-07-13 16:08:00,78.1,46.7,29.99,North,0,0.0,0.0,33,0.00,,SKC,0.00,VWS V13.00,2013-07-13 22:08:00,
2013-07-13 16:13:00,77.9,46.5,29.99,North,0,0.0,0.0,33,0.00,,SKC,0.00,VWS V13.00,2013-07-13 22:13:00,
2013-07-13 16:18:00,77.9,46.5,29.99,North,0,0.0,0.0,33,0.00,,SKC,0.00,VWS V13.00,2013-07-13 22:18:00,
2013-07-13 16:23:00,77.9,47.3,29.99,North,0,0.0,0.0,34,0.00,,SKC,0.00,VWS V13.00,2013-07-13 22:23:00,
2013-07-13 16:28:00,77.9,46.5,29.99,North,0,0.0,0.0,33,0.00,,SKC,0.00,VWS V13.00,2013-07-13 22:28:00,
2013-07-13 16:33:00,77.7,45.5,29.99,North,0,0.0,0.0,32,0.00,,SKC,0.00,VWS V13.00,2013-07-13 22:33:00,
2013-07-13 16:38:00,77.7,45.5,29.99,North,0,0.0,0.0,32,0.00,,SKC,0.00,VWS V13.00,2013-07-13 22:38:00,
2013-07-13 16:43:00,77.7,45.5,29.99,North,0,0.0,0.0,32,0.00,,SKC,0.00,VWS V13.00,2013-07-13 22:43:00,
2013-07-13 16:48:00,77.9,46.5,29.99,North,0,0.0,0.0,33,0.00,,SKC,0.00,VWS V13.00,2013-07-13 22:48:00,
2013-07-13 16:53:00,77.9,46.5,29.99,North,0,0.0,0.0,33,0.00,,SKC,0.00,VWS V13.00,2013-07-13 22:53:00,
2013-07-13 16:58:00,77.9,44.9,29.99,North,0,0.0,0.0,31,0.00,,SKC,0.00,VWS V13.00,2013-07-13 22:58:00,
2013-07-13 17:03:00,77.9,45.7,29.99,North,0,0.0,0.0,32,0.00,,SKC,0.00,VWS V13.00,2013-07-13 23:03:00,
2013-07-13 17:08:00,77.9,45.7,29.99,North,0,0.0,0.0,32,0.00,,SKC,0.00,VWS V13.00,2013-07-13 23:08:00,
2013-07-13 17:13:00,77.9,44.0,29.99,North,0,0.0,0.0,30,0.00,,SKC,0.00,VWS V13.00,2013-07-13 23:13:00,
2013-07-13 17:18:00,77.9,44.9,29.99,North,0,0.0,0.0,31,0.00,,SKC,0.00,VWS V13.00,2013-07-13 23:18:00,
2013-07-13 17:23:00,77.5,43.7,29.99,North,0,0.0,0.0,30,0.00,,SKC,0.00,VWS V13.00,2013-07-13 23:23:00,
2013-07-13 17:28:00,77.4,44.4,29.99,North,0,0.0,0.0,31,0.00,,SKC,0.00,VWS V13.00,2013-07-13 23:28:00,
2013-07-13 17:34:00,77.2,43.4,29.99,North,0,0.0,0.0,30,0.00,,SKC,0.00,VWS V13.00,2013-07-13 23:34:00,
2013-07-13 17:39:00,76.8,43.9,29.99,North,0,0.0,0.0,31,0.00,,SKC,0.00,VWS V13.00,2013-07-13 23:39:00,
2013-07-13 17:44:00,76.1,43.3,29.99,North,0,0.0,0.0,31,0.00,,SKC,0.00,VWS V13.00,2013-07-13 23:44:00,
2013-07-13 17:49:00,75.6,43.7,29.99,North,0,0.0,0.0,32,0.00,,SKC,0.00,VWS V13.00,2013-07-13 23:49:00,
2013-07-13 17:54:00,74.8,46.1,29.99,North,0,0.0,0.0,36,0.00,,SKC,0.00,VWS V13.00,2013-07-13 23:54:00,
2013-07-13 17:59:00,74.3,44.1,29.99,North,0,0.0,0.0,34,0.00,,SKC,0.00,VWS V13.00,2013-07-13 23:59:00,
2013-07-13 18:04:00,74.3,44.9,29.99,North,0,0.0,0.0,35,0.00,,SKC,0.00,VWS V13.00,2013-07-14 00:04:00,
2013-07-13 18:09:00,73.4,47.0,29.99,North,0,0.0,0.0,39,0.00,,SKC,0.00,VWS V13.00,2013-07-14 00:09:00,
2013-07-13 18:14:00,72.9,47.8,29.99,North,0,0.0,0.0,41,0.00,,SKC,0.00,VWS V13.00,2013-07-14 00:14:00,
2013-07-13 18:19:00,72.3,48.6,29.99,North,0,0.0,0.0,43,0.00,,SKC,0.00,VWS V13.00,2013-07-14 00:19:00,
2013-07-13 18:24:00,72.0,48.9,29.99,North,0,0.0,0.0,44,0.00,,SKC,0.00,VWS V13.00,2013-07-14 00:24:00,
2013-07-13 18:29:00,71.8,48.7,30.02,North,0,0.0,0.0,44,0.00,,SKC,0.00,VWS V13.00,2013-07-14 00:29:00,
2013-07-13 18:34:00,71.2,48.8,30.02,North,0,0.0,0.0,45,0.00,,SKC,0.00,VWS V13.00,2013-07-14 00:34:00,
2013-07-13 18:39:00,70.7,48.3,30.02,North,0,0.0,0.0,45,0.00,,SKC,0.00,VWS V13.00,2013-07-14 00:39:00,
2013-07-13 18:44:00,70.5,48.8,30.02,North,0,0.0,0.0,46,0.00,,SKC,0.00,VWS V13.00,2013-07-14 00:44:00,
2013-07-13 18:49:00,70.0,48.3,30.02,North,0,0.0,0.0,46,0.00,,SKC,0.00,VWS V13.00,2013-07-14 00:49:00,
2013-07-13 18:54:00,69.6,47.4,30.02,North,0,0.0,0.0,45,0.00,,SKC,0.00,VWS V13.00,2013-07-14 00:54:00,
2013-07-13 18:59:00,69.4,47.8,30.02,North,0,0.0,0.0,46,0.00,,SKC,0.00,VWS V13.00,2013-07-14 00:59:00,
2013-07-13 19:04:00,69.1,49.1,30.02,North,0,0.0,0.0,49,0.00,,SKC,0.00,VWS V13.00,2013-07-14 01:04:00,
2013-07-13 19:09:00,68.4,48.5,30.02,North,0,0.0,0.0,49,0.00,,SKC,0.00,VWS V13.00,2013-07-14 01:09:00,
2013-07-13 19:15:00,68.0,49.7,30.02,North,0,0.0,0.0,52,0.00,,SKC,0.00,VWS V13.00,2013-07-14 01:15:00,
2013-07-13 19:20:00,67.5,49.8,30.02,North,0,0.0,0.0,53,0.00,,SKC,0.00,VWS V13.00,2013-07-14 01:20:00,
2013-07-13 19:25:00,67.1,49.9,30.02,North,0,0.0,0.0,54,0.00,,SKC,0.00,VWS V13.00,2013-07-14 01:25:00,
2013-07-13 19:30:00,66.7,49.6,30.02,North,0,0.0,0.0,54,0.00,,SKC,0.00,VWS V13.00,2013-07-14 01:30:00,
2013-07-13 19:35:00,66.4,48.8,30.02,North,0,0.0,0.0,53,0.00,,SKC,0.00,VWS V13.00,2013-07-14 01:35:00,
2013-07-13 19:40:00,66.2,49.1,30.02,North,0,0.0,0.0,54,0.00,,SKC,0.00,VWS V13.00,2013-07-14 01:40:00,
2013-07-13 19:45:00,65.8,49.7,30.05,North,0,0.0,0.0,56,0.00,,SKC,0.00,VWS V13.00,2013-07-14 01:45:00,
2013-07-13 19:50:00,65.5,50.8,30.05,North,0,0.0,0.0,59,0.00,,SKC,0.00,VWS V13.00,2013-07-14 01:50:00,
2013-07-13 19:55:00,64.8,51.5,30.05,North,0,0.0,0.0,62,0.00,,SKC,0.00,VWS V13.00,2013-07-14 01:55:00,
2013-07-13 20:00:00,63.9,51.5,30.05,North,0,0.0,0.0,64,0.00,,SKC,0.00,VWS V13.00,2013-07-14 02:00:00,
2013-07-13 20:05:00,63.3,52.2,30.05,North,0,0.0,0.0,67,0.00,,SKC,0.00,VWS V13.00,2013-07-14 02:05:00,
2013-07-13 20:10:00,62.6,52.3,30.05,North,0,0.0,0.0,69,0.00,,SKC,0.00,VWS V13.00,2013-07-14 02:10:00,
2013-07-13 20:15:00,61.9,52.0,30.05,North,0,0.0,0.0,70,0.00,,SKC,0.00,VWS V13.00,2013-07-14 02:15:00,
2013-07-13 20:20:00,61.5,52.0,30.05,North,0,0.0,0.0,71,0.00,,SKC,0.00,VWS V13.00,2013-07-14 02:20:00,
2013-07-13 20:25:00,61.3,52.2,30.05,North,0,0.0,0.0,72,0.00,,SKC,0.00,VWS V13.00,2013-07-14 02:25:00,
2013-07-13 20:30:00,61.0,52.7,30.02,North,0,0.0,0.0,74,0.00,,SKC,0.00,VWS V13.00,2013-07-14 02:30:00,
2013-07-13 20:35:00,61.0,53.0,30.02,North,0,0.0,0.0,75,0.00,,SKC,0.00,VWS V13.00,2013-07-14 02:35:00,
2013-07-13 20:40:00,60.8,53.2,30.02,North,0,0.0,0.0,76,0.00,,SKC,0.00,VWS V13.00,2013-07-14 02:40:00,
2013-07-13 20:45:00,60.4,53.2,30.02,North,0,0.0,0.0,77,0.00,,SKC,0.00,VWS V13.00,2013-07-14 02:45:00,
2013-07-13 20:50:00,60.4,53.2,30.02,North,0,0.0,0.0,77,0.00,,SKC,0.00,VWS V13.00,2013-07-14 02:50:00,
2013-07-13 20:55:00,60.6,53.7,30.02,North,0,0.0,0.0,78,0.00,,SKC,0.00,VWS V13.00,2013-07-14 02:55:00,
2013-07-13 21:00:00,60.6,53.7,30.02,North,0,0.0,0.0,78,0.00,,SKC,0.00,VWS V13.00,2013-07-14 03:00:00,
2013-07-13 21:06:00,60.4,53.9,30.02,North,0,0.0,0.0,79,0.00,,SKC,0.00,VWS V13.00,2013-07-14 03:06:00,
2013-07-13 21:11:00,60.3,53.7,30.02,North,0,0.0,0.0,79,0.00,,SKC,0.00,VWS V13.00,2013-07-14 03:11:00,
2013-07-13 21:16:00,60.3,53.7,30.02,North,0,0.0,0.0,79,0.00,,SKC,0.00,VWS V13.00,2013-07-14 03:16:00,
2013-07-13 21:21:00,60.3,53.7,30.02,North,0,0.0,0.0,79,0.00,,SKC,0.00,VWS V13.00,2013-07-14 03:21:00,
2013-07-13 21:26:00,60.3,54.1,30.02,North,0,0.0,0.0,80,0.00,,SKC,0.00,VWS V13.00,2013-07-14 03:26:00,
2013-07-13 21:31:00,59.7,52.9,30.05,North,0,0.0,0.0,78,0.00,,SKC,0.00,VWS V13.00,2013-07-14 03:31:00,
2013-07-13 21:36:00,59.5,52.7,30.05,North,0,0.0,0.0,78,0.00,,SKC,0.00,VWS V13.00,2013-07-14 03:36:00,
2013-07-13 21:41:00,59.5,53.0,30.05,North,0,0.0,0.0,79,0.00,,SKC,0.00,VWS V13.00,2013-07-14 03:41:00,
2013-07-13 21:46:00,59.4,52.9,30.05,North,0,0.0,0.0,79,0.00,,SKC,0.00,VWS V13.00,2013-07-14 03:46:00,
2013-07-13 21:51:00,59.4,53.2,30.05,North,0,0.0,0.0,80,0.00,,SKC,0.00,VWS V13.00,2013-07-14 03:51:00,
2013-07-13 21:56:00,59.4,53.2,30.05,North,0,0.0,0.0,80,0.00,,SKC,0.00,VWS V13.00,2013-07-14 03:56:00,
2013-07-13 22:01:00,59.2,53.0,30.05,North,0,0.0,0.0,80,0.00,,SKC,0.00,VWS V13.00,2013-07-14 04:01:00,
2013-07-13 22:02:00,59.2,53.0,30.05,North,0,0.0,0.0,80,0.00,,SKC,0.00,VWS V13.00,2013-07-14 04:02:00,
2013-07-13 22:07:00,59.4,53.2,30.05,North,0,0.0,0.0,80,0.00,,SKC,0.00,VWS V13.00,2013-07-14 04:07:00,
2013-07-13 22:12:00,59.2,53.0,30.05,North,0,0.0,0.0,80,0.00,,SKC,0.00,VWS V13.00,2013-07-14 04:12:00,
2013-07-13 22:17:00,59.2,53.4,30.05,North,0,0.0,0.0,81,0.00,,SKC,0.00,VWS V13.00,2013-07-14 04:17:00,
2013-07-13 22:22:00,59.2,53.4,30.05,North,0,0.0,0.0,81,0.00,,SKC,0.00,VWS V13.00,2013-07-14 04:22:00,
2013-07-13 22:27:00,59.0,53.2,30.05,North,0,0.0,0.0,81,0.00,,SKC,0.00,VWS V13.00,2013-07-14 04:27:00,
2013-07-13 22:32:00,59.0,53.2,30.05,North,0,0.0,0.0,81,0.00,,SKC,0.00,VWS V13.00,2013-07-14 04:32:00,
2013-07-13 22:37:00,59.0,53.2,30.05,North,0,0.0,0.0,81,0.00,,SKC,0.00,VWS V13.00,2013-07-14 04:37:00,
2013-07-13 22:42:00,59.2,53.0,30.05,North,0,0.0,0.0,80,0.00,,SKC,0.00,VWS V13.00,2013-07-14 04:42:00,
2013-07-13 22:48:00,59.2,53.0,30.05,North,0,0.0,0.0,80,0.00,,SKC,0.00,VWS V13.00,2013-07-14 04:48:00,
2013-07-13 22:53:00,59.2,53.0,30.05,North,0,0.0,0.0,80,0.00,,SKC,0.00,VWS V13.00,2013-07-14 04:53:00,
2013-07-13 22:58:00,59.2,52.7,30.05,North,0,0.0,0.0,79,0.00,,SKC,0.00,VWS V13.00,2013-07-14 04:58:00,
2013-07-13 23:03:00,58.8,52.3,30.05,North,0,0.0,0.0,79,0.00,,SKC,0.00,VWS V13.00,2013-07-14 05:03:00,
2013-07-13 23:08:00,58.5,52.3,30.05,North,0,0.0,0.0,80,0.00,,SKC,0.00,VWS V13.00,2013-07-14 05:08:00,
2013-07-13 23:13:00,58.5,52.3,30.05,North,0,0.0,0.0,80,0.00,,SKC,0.00,VWS V13.00,2013-07-14 05:13:00,
2013-07-13 23:18:00,58.3,52.5,30.05,North,0,0.0,0.0,81,0.00,,SKC,0.00,VWS V13.00,2013-07-14 05:18:00,
2013-07-13 23:23:00,58.1,52.0,30.05,North,0,0.0,0.0,80,0.00,,SKC,0.00,VWS V13.00,2013-07-14 05:23:00,
2013-07-13 23:28:00,58.1,52.3,30.05,North,0,0.0,0.0,81,0.00,,SKC,0.00,VWS V13.00,2013-07-14 05:28:00,
2013-07-13 23:33:00,58.1,52.3,30.05,North,0,0.0,0.0,81,0.00,,SKC,0.00,VWS V13.00,2013-07-14 05:33:00,
2013-07-13 23:38:00,58.1,52.3,30.05,North,0,0.0,0.0,81,0.00,,SKC,0.00,VWS V13.00,2013-07-14 05:38:00,
2013-07-13 23:43:00,57.9,52.1,30.05,North,0,0.0,0.0,81,0.00,,SKC,0.00,VWS V13.00,2013-07-14 05:43:00,
2013-07-13 23:48:00,57.9,52.1,30.05,North,0,0.0,0.0,81,0.00,,SKC,0.00,VWS V13.00,2013-07-14 05:48:00,
2013-07-13 23:53:00,57.7,52.0,30.05,North,0,0.0,0.0,81,0.00,,SKC,0.00,VWS V13.00,2013-07-14 05:53:00,
2013-07-13 23:58:00,57.6,51.8,30.05,North,0,0.0,0.0,81,0.00,,SKC,0.00,VWS V13.00,2013-07-14 05:58:00,